Change the Weather History Date:

Friday, December 14, 2012

  Actual Average Record
Temperature  
Mean Temperature 54 °F -  
Max Temperature 60 °F 67 °F 84 °F (2001)
Min Temperature 48 °F 44 °F 24 °F (2010)
Degree Days  
Heating Degree Days 11    
Growing Degree Days 4 (Base 50)    
Moisture  
Dew Point 43 °F    
Average Humidity 71    
Maximum Humidity 76    
Minimum Humidity 59    
Precipitation  
Precipitation 0.00 in - - ()
Sea Level Pressure  
Sea Level Pressure 30.22 in    
Wind  
Wind Speed 8 mph (NNE)    
Max Wind Speed 12 mph    
Max Gust Speed -    
Visibility 6 miles    
Events      
Averages and records for this station are not official NWS values.
T = Trace of Precipitation, MM = Missing Value Source: NWS Daily Summary

Daily Weather History Graph

Daily Weather History Graph

Search for Another Location

Airport or City:

Trip Planner

Search our weather history database for the weather conditions in past years. The results will help you decide how hot, cold, wet, or windy it might be!

Date:

Astronomy

Dec. 14, 2012 Rise Set
Actual Time 7:15 AM EST 5:32 PM EST
Civil Twilight 6:48 AM EST 5:58 PM EST
Nautical Twilight 6:19 AM EST 6:28 PM EST
Astronomical Twilight 5:50 AM EST 6:57 PM EST
Moon 8:22 AM EST (12/14) 7:18 PM EST (12/14)
Length of Visible Light 11h 09m
Length of Day
10h 17m
Waxing Crescent, 3% of the Moon is Illuminated
Dec 14
Waxing Crescent
Dec 20
First Quarter
Dec 28
Full
Jan 4
Last Quarter
Jan 11
New

Hourly Weather History & Observations

Time (EST) Temp. Dew Point Humidity Pressure Visibility Wind Dir Wind Speed Gust Speed Precip Events Conditions
12:15 AM 50.0 °F 42.8 °F 76% 30.25 in 10.0 mi NNE 9.2 mph - N/A   Overcast
12:35 AM 50.0 °F 42.8 °F 76% 30.25 in 10.0 mi NNE 11.5 mph - N/A   Overcast
12:55 AM 50.0 °F 41.0 °F 71% 30.24 in 10.0 mi NNE 6.9 mph - N/A   Overcast
1:15 AM 50.0 °F 41.0 °F 71% 30.24 in 4.0 mi North 8.1 mph - N/A   Overcast
1:35 AM 50.0 °F 41.0 °F 71% 30.23 in 4.0 mi North 9.2 mph - N/A   Overcast
1:55 AM 48.2 °F 41.0 °F 76% 30.23 in 2.5 mi NNE 6.9 mph - N/A   Overcast
2:15 AM 48.2 °F 41.0 °F 76% 30.23 in 3.0 mi North 10.4 mph - N/A   Overcast
2:35 AM 48.2 °F 41.0 °F 76% 30.23 in 3.0 mi North 8.1 mph - N/A   Overcast
2:55 AM 48.2 °F 41.0 °F 76% 30.22 in 5.0 mi North 9.2 mph - N/A   Overcast
3:15 AM 48.2 °F 41.0 °F 76% 30.22 in 5.0 mi North 11.5 mph - N/A   Overcast
3:35 AM 48.2 °F 41.0 °F 76% 30.22 in 4.0 mi North 9.2 mph - N/A   Overcast
3:55 AM 48.2 °F 41.0 °F 76% 30.22 in 3.0 mi North 8.1 mph - N/A   Overcast
4:15 AM 48.2 °F 41.0 °F 76% 30.22 in 3.0 mi North 10.4 mph - N/A   Overcast
4:35 AM 48.2 °F 41.0 °F 76% 30.22 in 2.5 mi North 5.8 mph - N/A   Overcast
4:55 AM 48.2 °F 41.0 °F 76% 30.22 in 2.5 mi North 8.1 mph - N/A   Overcast
5:15 AM 48.2 °F 41.0 °F 76% 30.21 in 3.0 mi North 9.2 mph - N/A   Overcast
5:55 AM 48.2 °F 41.0 °F 76% 30.22 in 2.5 mi North 9.2 mph - N/A   Overcast
6:15 AM 48.2 °F 41.0 °F 76% 30.22 in 3.0 mi North 9.2 mph - N/A   Overcast
6:35 AM 48.2 °F 41.0 °F 76% 30.22 in 5.0 mi North 6.9 mph - N/A   Overcast
6:50 AM 48.2 °F 41.0 °F 76% 30.22 in 3.0 mi North 8.1 mph - N/A   Overcast
7:50 AM 50.0 °F 42.8 °F 76% 30.25 in 1.0 mi North 8.1 mph - N/A   Overcast
8:50 AM 51.8 °F 42.8 °F 71% 30.26 in 2.0 mi NNE 5.8 mph - N/A   Overcast
9:50 AM 53.6 °F 44.6 °F 72% 30.28 in 4.0 mi NNE 6.9 mph - N/A   Overcast
10:50 AM 55.4 °F 44.6 °F 67% 30.28 in 5.0 mi NNE 5.8 mph - N/A   Overcast
11:50 AM 55.4 °F 44.6 °F 67% 30.27 in 5.0 mi NNE 9.2 mph - N/A   Overcast
1:50 PM 59.0 °F 46.4 °F 63% 30.21 in 5.0 mi NNE 5.8 mph - N/A   Overcast
2:50 PM 59.0 °F 46.4 °F 63% 30.19 in 5.0 mi NNE 8.1 mph - N/A   Overcast
3:50 PM 60.8 °F 46.4 °F 59% 30.18 in 5.0 mi NE 5.8 mph - N/A   Overcast
5:50 PM 57.2 °F 46.4 °F 67% 30.18 in 10.0 mi NNE 4.6 mph - N/A   Scattered Clouds
6:50 PM 57.2 °F 46.4 °F 67% 30.17 in 10.0 mi NE 6.9 mph - N/A   Clear
7:55 PM 57.2 °F 46.4 °F 67% 30.20 in 10.0 mi NNE 5.8 mph - N/A   Overcast
8:15 PM 57.2 °F 46.4 °F 67% 30.21 in 10.0 mi NNE 6.9 mph - N/A   Overcast
8:55 PM 57.2 °F 46.4 °F 67% 30.21 in 10.0 mi NNE 5.8 mph - N/A   Overcast
9:15 PM 57.2 °F 44.6 °F 63% 30.21 in 10.0 mi NE 5.8 mph - N/A   Overcast
9:35 PM 55.4 °F 46.4 °F 72% 30.20 in 10.0 mi NNE 6.9 mph - N/A   Overcast
9:55 PM 55.4 °F 44.6 °F 67% 30.19 in 10.0 mi NE 4.6 mph - N/A   Mostly Cloudy
10:15 PM 55.4 °F 44.6 °F 67% 30.18 in 10.0 mi NNE 6.9 mph - N/A   Partly Cloudy
10:35 PM 55.4 °F 44.6 °F 67% 30.17 in 10.0 mi NE 3.5 mph - N/A   Clear
10:55 PM 53.6 °F 44.6 °F 72% 30.18 in 10.0 mi NNE 4.6 mph - N/A   Clear
11:15 PM 53.6 °F 44.6 °F 72% 30.17 in 10.0 mi NNE 5.8 mph - N/A   Scattered Clouds
11:35 PM 53.6 °F 44.6 °F 72% 30.16 in 10.0 mi NNE 4.6 mph - N/A   Clear
11:55 PM 53.6 °F 44.6 °F 72% 30.16 in 10.0 mi NNE 3.5 mph - N/A   Partly Cloudy